Location: Navalespino
(40.5894°N, 4.2660°W)
Time: 09:40:23
(UTC+00:00)

SPOT 3 Rocket - Pass Details

Date: 18 April 2024
Orbit: 776 x 793 km, 98.6° (Epoch: 20 May)

Event Time Altitude Azimuth Distance (km) Brightness Sun altitude
Exits shadow 21:35:45 66° 60° (ENE) 864 3.6 -26.3°
Drops below altitude 10° 21:40:43 10° 352° (N) 2,356 6.7 -26.9°
Sets 21:43:03 0° 350° (N) 3,287 7.6 -27.2°
